Time,TemperatureF,DewpointF,PressureIn,WindDirection,WindDirectionDegrees,WindSpeedMPH,WindSpeedGustMPH,Humidity,HourlyPrecipIn,Conditions,Clouds,dailyrainin,SoftwareType,DateUTC
2013-05-17 00:02:00,70.0,20.0,29.92,WNW,300,7.0,8.0,15,-99.99,,,-99.99,,2013-05-17 06:02:00,
2013-05-17 00:11:00,70.0,20.0,29.93,WNW,301,7.0,7.0,15,-99.99,,,-99.99,,2013-05-17 06:11:00,
2013-05-17 00:21:00,69.0,20.0,29.93,NW,304,6.0,7.0,15,-99.99,,,-99.99,,2013-05-17 06:21:00,
2013-05-17 00:32:00,69.0,20.0,29.93,NW,304,7.0,8.0,15,-99.99,,,-99.99,,2013-05-17 06:32:00,
2013-05-17 00:42:00,68.0,20.0,29.93,WNW,286,8.0,9.0,16,-99.99,,,-99.99,,2013-05-17 06:42:00,
2013-05-17 00:52:00,67.0,19.0,29.93,WNW,285,7.0,8.0,16,-99.99,,,-99.99,,2013-05-17 06:52:00,
2013-05-17 01:02:00,65.0,20.0,29.93,WNW,285,8.0,9.0,17,-99.99,,,-99.99,,2013-05-17 07:02:00,
2013-05-17 01:11:00,65.0,19.0,29.93,WNW,289,7.0,9.0,17,-99.99,,,-99.99,,2013-05-17 07:11:00,
2013-05-17 01:21:00,66.0,20.0,29.93,West,279,9.0,10.0,17,-99.99,,,-99.99,,2013-05-17 07:21:00,
2013-05-17 01:32:00,67.0,21.0,29.93,WNW,285,8.0,10.0,17,-99.99,,,-99.99,,2013-05-17 07:32:00,
2013-05-17 01:43:00,69.0,21.0,29.93,WNW,285,7.0,9.0,16,-99.99,,,-99.99,,2013-05-17 07:43:00,
2013-05-17 01:53:00,68.0,20.0,29.93,WNW,287,7.0,8.0,16,-99.99,,,-99.99,,2013-05-17 07:53:00,
2013-05-17 02:02:00,67.0,21.0,29.94,WNW,295,7.0,9.0,17,-99.99,,,-99.99,,2013-05-17 08:02:00,
2013-05-17 02:12:00,66.0,20.0,29.94,WNW,285,7.0,8.0,17,-99.99,,,-99.99,,2013-05-17 08:12:00,
2013-05-17 02:23:00,65.0,21.0,29.94,West,264,6.0,7.0,18,-99.99,,,-99.99,,2013-05-17 08:23:00,
2013-05-17 02:33:00,65.0,20.0,29.94,West,261,7.0,8.0,17,-99.99,,,-99.99,,2013-05-17 08:33:00,
2013-05-17 02:42:00,65.0,21.0,29.94,WSW,238,7.0,8.0,18,-99.99,,,-99.99,,2013-05-17 08:42:00,
2013-05-17 02:51:00,65.0,19.0,29.95,WSW,249,7.0,8.0,17,-99.99,,,-99.99,,2013-05-17 08:51:00,
2013-05-17 03:02:00,63.0,19.0,29.95,WSW,255,6.0,7.0,18,-99.99,,,-99.99,,2013-05-17 09:02:00,
2013-05-17 03:12:00,62.0,19.0,29.95,West,275,8.0,9.0,19,-99.99,,,-99.99,,2013-05-17 09:12:00,
2013-05-17 03:22:00,61.0,19.0,29.95,WNW,285,8.0,8.0,19,-99.99,,,-99.99,,2013-05-17 09:22:00,
2013-05-17 03:33:00,61.0,19.0,29.95,West,260,6.0,8.0,19,-99.99,,,-99.99,,2013-05-17 09:33:00,
2013-05-17 03:42:00,62.0,19.0,29.95,WSW,253,7.0,8.0,19,-99.99,,,-99.99,,2013-05-17 09:42:00,
2013-05-17 03:53:00,61.0,18.0,29.95,WSW,251,7.0,8.0,19,-99.99,,,-99.99,,2013-05-17 09:53:00,
2013-05-17 04:03:00,60.0,19.0,29.95,WSW,253,6.0,7.0,20,-99.99,,,-99.99,,2013-05-17 10:03:00,
2013-05-17 04:12:00,60.0,19.0,29.96,WSW,255,5.0,6.0,20,-99.99,,,-99.99,,2013-05-17 10:12:00,
2013-05-17 04:23:00,61.0,19.0,29.96,WSW,254,5.0,6.0,20,-99.99,,,-99.99,,2013-05-17 10:23:00,
2013-05-17 04:33:00,61.0,19.0,29.96,WSW,247,6.0,7.0,19,-99.99,,,-99.99,,2013-05-17 10:33:00,
2013-05-17 04:42:00,62.0,19.0,29.96,WSW,249,6.0,7.0,19,-99.99,,,-99.99,,2013-05-17 10:42:00,
2013-05-17 04:53:00,61.0,18.0,29.96,West,267,7.0,8.0,19,-99.99,,,-99.99,,2013-05-17 10:53:00,
2013-05-17 05:02:00,61.0,18.0,29.97,West,280,6.0,6.0,19,-99.99,,,-99.99,,2013-05-17 11:02:00,
2013-05-17 05:12:00,62.0,19.0,29.97,WNW,294,5.0,6.0,19,-99.99,,,-99.99,,2013-05-17 11:12:00,
2013-05-17 05:23:00,63.0,19.0,29.97,WNW,288,5.0,5.0,18,-99.99,,,-99.99,,2013-05-17 11:23:00,
2013-05-17 05:34:00,63.0,19.0,29.97,WNW,296,6.0,7.0,18,-99.99,,,-99.99,,2013-05-17 11:34:00,
2013-05-17 05:42:00,64.0,19.0,29.97,WNW,303,7.0,8.0,17,-99.99,,,-99.99,,2013-05-17 11:42:00,
2013-05-17 05:53:00,64.0,18.0,29.97,WNW,286,8.0,8.0,17,-99.99,,,-99.99,,2013-05-17 11:53:00,
2013-05-17 06:03:00,63.0,19.0,29.97,WNW,289,8.0,9.0,18,-99.99,,,-99.99,,2013-05-17 12:03:00,
2013-05-17 06:12:00,61.0,18.0,29.97,WNW,296,7.0,9.0,19,-99.99,,,-99.99,,2013-05-17 12:12:00,
2013-05-17 06:23:00,62.0,19.0,29.97,NW,317,8.0,8.0,19,-99.99,,,-99.99,,2013-05-17 12:23:00,
2013-05-17 06:32:00,65.0,19.0,29.97,NW,323,7.0,9.0,17,-99.99,,,-99.99,,2013-05-17 12:32:00,
2013-05-17 06:43:00,65.0,19.0,29.98,NNE,21,5.0,7.0,17,-99.99,,,-99.99,,2013-05-17 12:43:00,
2013-05-17 06:53:00,65.0,19.0,29.98,North,9,3.0,6.0,17,-99.99,,,-99.99,,2013-05-17 12:53:00,
2013-05-17 07:03:00,63.0,20.0,29.99,North,351,2.0,3.0,19,-99.99,,,-99.99,,2013-05-17 13:03:00,
2013-05-17 07:12:00,63.0,22.0,29.99,NW,318,3.0,5.0,20,-99.99,,,-99.99,,2013-05-17 13:12:00,
2013-05-17 07:23:00,63.0,23.0,29.99,NNW,340,2.0,3.0,21,-99.99,,,-99.99,,2013-05-17 13:23:00,
2013-05-17 07:33:00,65.0,22.0,29.99,NW,319,3.0,3.0,19,-99.99,,,-99.99,,2013-05-17 13:33:00,
2013-05-17 07:42:00,66.0,21.0,30.00,WSW,246,5.0,5.0,18,-99.99,,,-99.99,,2013-05-17 13:42:00,
2013-05-17 07:52:00,66.0,22.0,30.00,WNW,300,5.0,6.0,18,-99.99,,,-99.99,,2013-05-17 13:52:00,
2013-05-17 08:02:00,68.0,21.0,30.00,NW,304,3.0,5.0,17,-99.99,,,-99.99,,2013-05-17 14:02:00,
2013-05-17 08:13:00,69.0,21.0,30.00,NNE,16,3.0,6.0,16,-99.99,,,-99.99,,2013-05-17 14:13:00,
2013-05-17 08:22:00,69.0,21.0,30.01,NNW,340,2.0,5.0,16,-99.99,,,-99.99,,2013-05-17 14:22:00,
2013-05-17 08:34:00,70.0,22.0,30.01,NW,313,6.0,8.0,16,-99.99,,,-99.99,,2013-05-17 14:34:00,
2013-05-17 08:43:00,71.0,21.0,30.01,North,0,0.0,3.0,15,-99.99,,,-99.99,,2013-05-17 14:43:00,
2013-05-17 08:53:00,72.0,22.0,30.02,NE,36,2.0,3.0,15,-99.99,,,-99.99,,2013-05-17 14:53:00,
2013-05-17 09:03:00,72.0,22.0,30.02,West,280,3.0,5.0,15,-99.99,,,-99.99,,2013-05-17 15:03:00,
2013-05-17 09:14:00,74.0,22.0,30.02,NW,314,5.0,5.0,14,-99.99,,,-99.99,,2013-05-17 15:14:00,
2013-05-17 09:25:00,75.0,23.0,30.02,NW,304,2.0,6.0,14,-99.99,,,-99.99,,2013-05-17 15:25:00,
2013-05-17 09:37:00,77.0,24.0,30.02,WNW,288,6.0,8.0,14,-99.99,,,-99.99,,2013-05-17 15:37:00,
2013-05-17 09:47:00,79.0,24.0,30.02,NW,307,6.0,8.0,13,-99.99,,,-99.99,,2013-05-17 15:47:00,
2013-05-17 09:56:00,80.0,25.0,30.02,NW,313,8.0,10.0,13,-99.99,,,-99.99,,2013-05-17 15:56:00,
2013-05-17 10:07:00,81.0,24.0,30.02,West,281,9.0,13.0,12,-99.99,,,-99.99,,2013-05-17 16:07:00,
2013-05-17 10:13:00,81.0,24.0,30.01,NW,311,8.0,12.0,12,-99.99,,,-99.99,,2013-05-17 16:13:00,
2013-05-17 10:26:00,82.0,25.0,30.01,WNW,303,8.0,10.0,12,-99.99,,,-99.99,,2013-05-17 16:26:00,
2013-05-17 10:37:00,83.0,25.0,30.01,NW,310,10.0,14.0,12,-99.99,,,-99.99,,2013-05-17 16:37:00,
2013-05-17 10:49:00,84.0,24.0,30.01,WNW,299,10.0,14.0,11,-99.99,,,-99.99,,2013-05-17 16:49:00,
2013-05-17 10:56:00,85.0,24.0,30.01,NW,309,10.0,14.0,11,-99.99,,,-99.99,,2013-05-17 16:56:00,
2013-05-17 11:08:00,85.0,25.0,30.00,NNW,346,9.0,13.0,11,-99.99,,,-99.99,,2013-05-17 17:08:00,
2013-05-17 11:19:00,85.0,24.0,30.01,NNW,334,6.0,8.0,11,-99.99,,,-99.99,,2013-05-17 17:19:00,
2013-05-17 11:30:00,85.0,24.0,30.01,NNW,346,10.0,14.0,11,-99.99,,,-99.99,,2013-05-17 17:30:00,
2013-05-17 11:40:00,84.0,-99.9,30.01,NNE,23,6.0,9.0,11,-99.99,,,-99.99,,2013-05-17 17:40:00,
2013-05-17 11:49:00,86.0,25.0,30.01,NNW,327,9.0,13.0,11,-99.99,,,-99.99,,2013-05-17 17:49:00,
2013-05-17 12:00:00,86.0,25.0,30.01,NNW,330,10.0,16.0,11,-99.99,,,-99.99,,2013-05-17 18:00:00,
2013-05-17 12:09:00,87.0,26.0,30.00,West,263,9.0,15.0,11,-99.99,,,-99.99,,2013-05-17 18:09:00,
2013-05-17 12:20:00,87.0,26.0,30.00,NW,306,10.0,15.0,11,-99.99,,,-99.99,,2013-05-17 18:20:00,
2013-05-17 12:30:00,87.0,26.0,30.00,West,278,6.0,10.0,11,-99.99,,,-99.99,,2013-05-17 18:30:00,
2013-05-17 12:40:00,87.0,-99.9,30.00,NW,310,6.0,9.0,11,-99.99,,,-99.99,,2013-05-17 18:40:00,
2013-05-17 12:50:00,-999.0,-99.9,30.00,NW,305,5.0,8.0,11,-99.99,,,-99.99,,2013-05-17 18:50:00,
2013-05-17 13:00:00,89.0,25.0,29.99,NW,307,9.0,13.0,10,-99.99,,,-99.99,,2013-05-17 19:00:00,
2013-05-17 13:10:00,87.0,24.0,29.99,SSW,213,7.0,12.0,10,-99.99,,,-99.99,,2013-05-17 19:10:00,
2013-05-17 13:20:00,88.0,24.0,29.99,NNW,336,7.0,9.0,10,-99.99,,,-99.99,,2013-05-17 19:20:00,
2013-05-17 13:30:00,88.0,25.0,29.98,NNW,348,9.0,15.0,10,-99.99,,,-99.99,,2013-05-17 19:30:00,
2013-05-17 13:40:00,89.0,25.0,29.98,WSW,258,6.0,10.0,10,-99.99,,,-99.99,,2013-05-17 19:40:00,
2013-05-17 13:50:00,89.0,26.0,29.98,West,280,10.0,15.0,10,-99.99,,,-99.99,,2013-05-17 19:50:00,
2013-05-17 14:00:00,89.0,-99.9,29.97,West,281,9.0,15.0,10,-99.99,,,-99.99,,2013-05-17 20:00:00,
2013-05-17 14:09:00,89.0,25.0,29.97,SSW,209,8.0,10.0,10,-99.99,,,-99.99,,2013-05-17 20:09:00,
2013-05-17 14:20:00,88.0,25.0,29.97,North,0,3.0,7.0,10,-99.99,,,-99.99,,2013-05-17 20:20:00,
2013-05-17 14:30:00,90.0,26.0,29.97,West,259,7.0,10.0,10,-99.99,,,-99.99,,2013-05-17 20:30:00,
2013-05-17 14:40:00,90.0,26.0,29.96,West,280,12.0,16.0,10,-99.99,,,-99.99,,2013-05-17 20:40:00,
2013-05-17 14:50:00,88.0,24.0,29.96,SE,136,6.0,9.0,10,-99.99,,,-99.99,,2013-05-17 20:50:00,
2013-05-17 14:58:00,90.0,26.0,29.95,WSW,258,9.0,13.0,10,-99.99,,,-99.99,,2013-05-17 20:58:00,
2013-05-17 15:07:00,91.0,27.0,29.95,West,264,8.0,16.0,10,-99.99,,,-99.99,,2013-05-17 21:07:00,
2013-05-17 15:17:00,90.0,26.0,29.94,NNE,23,6.0,7.0,10,-99.99,,,-99.99,,2013-05-17 21:17:00,
2013-05-17 15:26:00,90.0,26.0,29.94,West,280,12.0,15.0,10,-99.99,,,-99.99,,2013-05-17 21:26:00,
2013-05-17 15:39:00,91.0,27.0,29.94,SSW,200,12.0,14.0,10,-99.99,,,-99.99,,2013-05-17 21:39:00,
2013-05-17 15:49:00,91.0,27.0,29.93,SW,232,15.0,22.0,10,-99.99,,,-99.99,,2013-05-17 21:49:00,
2013-05-17 15:57:00,91.0,27.0,29.93,SSW,205,9.0,13.0,10,-99.99,,,-99.99,,2013-05-17 21:57:00,
2013-05-17 16:07:00,90.0,26.0,29.92,SSW,213,6.0,9.0,10,-99.99,,,-99.99,,2013-05-17 22:07:00,
2013-05-17 16:17:00,91.0,27.0,29.92,SSW,193,15.0,22.0,10,-99.99,,,-99.99,,2013-05-17 22:17:00,
2013-05-17 16:28:00,91.0,27.0,29.92,South,176,10.0,14.0,10,-99.99,,,-99.99,,2013-05-17 22:28:00,
2013-05-17 16:38:00,90.0,26.0,29.91,South,191,6.0,9.0,10,-99.99,,,-99.99,,2013-05-17 22:38:00,
2013-05-17 16:47:00,90.0,26.0,29.91,SSW,203,13.0,17.0,10,-99.99,,,-99.99,,2013-05-17 22:47:00,
2013-05-17 16:54:00,90.0,26.0,29.91,SW,215,8.0,12.0,10,-99.99,,,-99.99,,2013-05-17 22:54:00,
2013-05-17 17:04:00,90.0,26.0,29.91,West,259,7.0,10.0,10,-99.99,,,-99.99,,2013-05-17 23:04:00,
2013-05-17 17:13:00,91.0,27.0,29.90,WSW,240,14.0,22.0,10,-99.99,,,-99.99,,2013-05-17 23:13:00,
2013-05-17 17:23:00,91.0,27.0,29.90,West,263,6.0,8.0,10,-99.99,,,-99.99,,2013-05-17 23:23:00,
2013-05-17 17:37:00,90.0,29.0,29.90,SSW,213,8.0,12.0,11,-99.99,,,-99.99,,2013-05-17 23:37:00,
2013-05-17 17:47:00,91.0,29.0,29.90,WNW,294,10.0,14.0,11,-99.99,,,-99.99,,2013-05-17 23:47:00,
2013-05-17 17:54:00,91.0,27.0,29.90,WSW,240,9.0,16.0,10,-99.99,,,-99.99,,2013-05-17 23:54:00,
2013-05-17 18:02:00,91.0,27.0,29.90,SW,224,17.0,22.0,10,-99.99,,,-99.99,,2013-05-18 00:02:00,
2013-05-17 18:14:00,90.0,28.0,29.90,SW,232,14.0,24.0,11,-99.99,,,-99.99,,2013-05-18 00:14:00,
2013-05-17 18:22:00,90.0,28.0,29.90,SW,236,14.0,21.0,11,-99.99,,,-99.99,,2013-05-18 00:22:00,
2013-05-17 18:33:00,90.0,28.0,29.90,WSW,246,7.0,10.0,11,-99.99,,,-99.99,,2013-05-18 00:33:00,
2013-05-17 18:44:00,89.0,28.0,29.90,WNW,298,7.0,12.0,11,-99.99,,,-99.99,,2013-05-18 00:44:00,
2013-05-17 18:54:00,89.0,28.0,29.89,WNW,287,6.0,9.0,11,-99.99,,,-99.99,,2013-05-18 00:54:00,
2013-05-17 19:02:00,89.0,30.0,29.89,SW,226,13.0,16.0,12,-99.99,,,-99.99,,2013-05-18 01:02:00,
2013-05-17 19:13:00,89.0,29.0,29.89,SW,233,10.0,14.0,12,-99.99,,,-99.99,,2013-05-18 01:13:00,
2013-05-17 19:24:00,88.0,29.0,29.89,SW,236,6.0,7.0,12,-99.99,,,-99.99,,2013-05-18 01:24:00,
2013-05-17 19:32:00,88.0,29.0,29.89,South,185,8.0,9.0,12,-99.99,,,-99.99,,2013-05-18 01:32:00,
2013-05-17 19:43:00,87.0,28.0,29.89,SSW,199,3.0,6.0,12,-99.99,,,-99.99,,2013-05-18 01:43:00,
2013-05-17 19:52:00,87.0,28.0,29.89,SSW,202,8.0,9.0,12,-99.99,,,-99.99,,2013-05-18 01:52:00,
2013-05-17 20:02:00,86.0,28.0,29.89,SSW,192,6.0,8.0,12,-99.99,,,-99.99,,2013-05-18 02:02:00,
2013-05-17 20:12:00,86.0,27.0,29.90,South,186,6.0,7.0,12,-99.99,,,-99.99,,2013-05-18 02:12:00,
2013-05-17 20:22:00,86.0,27.0,29.90,SSW,194,6.0,7.0,12,-99.99,,,-99.99,,2013-05-18 02:22:00,
2013-05-17 20:31:00,84.0,28.0,29.91,SW,226,5.0,6.0,13,-99.99,,,-99.99,,2013-05-18 02:31:00,
2013-05-17 20:42:00,84.0,28.0,29.91,SW,231,3.0,3.0,13,-99.99,,,-99.99,,2013-05-18 02:42:00,
2013-05-17 20:53:00,84.0,28.0,29.91,SW,219,2.0,3.0,13,-99.99,,,-99.99,,2013-05-18 02:53:00,
2013-05-17 21:02:00,84.0,28.0,29.91,South,181,3.0,3.0,13,-99.99,,,-99.99,,2013-05-18 03:02:00,
2013-05-17 21:12:00,82.0,28.0,29.91,South,177,3.0,3.0,14,-99.99,,,-99.99,,2013-05-18 03:12:00,
2013-05-17 21:22:00,81.0,28.0,29.91,SSW,205,2.0,3.0,14,-99.99,,,-99.99,,2013-05-18 03:22:00,
2013-05-17 21:32:00,81.0,27.0,29.92,WSW,249,5.0,5.0,14,-99.99,,,-99.99,,2013-05-18 03:32:00,
2013-05-17 21:43:00,81.0,25.0,29.92,WSW,240,5.0,5.0,13,-99.99,,,-99.99,,2013-05-18 03:43:00,
2013-05-17 21:53:00,80.0,27.0,29.92,WSW,242,7.0,7.0,14,-99.99,,,-99.99,,2013-05-18 03:53:00,
2013-05-17 22:02:00,78.0,25.0,29.93,SW,230,8.0,9.0,14,-99.99,,,-99.99,,2013-05-18 04:02:00,
2013-05-17 22:12:00,79.0,26.0,29.93,WSW,243,8.0,9.0,14,-99.99,,,-99.99,,2013-05-18 04:12:00,
2013-05-17 22:23:00,78.0,27.0,29.94,WSW,253,8.0,14.0,15,-99.99,,,-99.99,,2013-05-18 04:23:00,
2013-05-17 22:33:00,80.0,28.0,29.95,West,264,14.0,20.0,15,-99.99,,,-99.99,,2013-05-18 04:33:00,
2013-05-17 22:42:00,80.0,28.0,29.95,WNW,285,10.0,14.0,15,-99.99,,,-99.99,,2013-05-18 04:42:00,
2013-05-17 22:52:00,78.0,25.0,29.95,WNW,284,10.0,13.0,14,-99.99,,,-99.99,,2013-05-18 04:52:00,
2013-05-17 23:02:00,77.0,24.0,29.95,WNW,283,9.0,10.0,14,-99.99,,,-99.99,,2013-05-18 05:02:00,
2013-05-17 23:12:00,77.0,22.0,29.95,WNW,284,10.0,12.0,13,-99.99,,,-99.99,,2013-05-18 05:12:00,
2013-05-17 23:22:00,76.0,20.0,29.95,West,277,10.0,12.0,12,-99.99,,,-99.99,,2013-05-18 05:22:00,
2013-05-17 23:31:00,75.0,19.0,29.95,West,271,9.0,12.0,12,-99.99,,,-99.99,,2013-05-18 05:31:00,
2013-05-17 23:42:00,73.0,19.0,29.96,West,277,9.0,10.0,13,-99.99,,,-99.99,,2013-05-18 05:42:00,
2013-05-17 23:52:00,72.0,20.0,29.96,West,274,10.0,12.0,14,-99.99,,,-99.99,,2013-05-18 05:52:00,